User: anonymous   Login
Location: Unspecified
(0.0000°N, 0.0000°E)
Time: 00:46:44
(UTC+00:00)
Language:

MERIDIAN 7 - Orbit

View from above orbital plane
View from above orbital plane
View from above satellite
View from above satellite

Ground track
Ground track

The orbit data is extracted from the following two-line orbital elements,

1 40296U 14069A   21136.35214116  .00000104  00000-0  00000-0 0  9992
2 40296  63.1561  82.1415 7040443 273.4511 345.3704  2.00606231 47952
Epoch (UTC): 16 May 2021 08:27:04
Eccentricity: 0.7040443
inclination: 63.1561°
perigee height: 1481 km
apogee height: 38875 km
right ascension of ascending node: 82.1415°
argument of perigee: 273.4511°
revolutions per day: 2.00606231
mean anomaly at epoch: 345.3704°
orbit number at epoch: 4795

The dashed part of the orbit path shows where the satellite is in the earth's shadow,  

DLR